[[{"header":{"parameterUnit":"m.s-1","parameterCategory":1,"la1":30.2992,"la2":30.254,"lo1":-89.0895,"lo2":-89.0443,"dy":0.0025,"dx":0.0025,"nx":19,"ny":19,"refTime":"2026-05-18T09:00:00:Z","depth":0,"parameterNumber":2,"parameterNumberName":"U-component_of_WINDS"},"data":[0,0,0,-5.3461,-5.3463,-5.3581,-5.3582,-5.3736,-5.3737,0,0,0,0,0,0,0,0,0,0,0,-5.3428,-5.3429,-5.346,-5.3463,-5.3581,-5.3582,-5.3735,-5.3737,0,0,0,0,0,0,0,0,0,0,0,-5.3428,-5.3429,-5.343,-5.3464,-5.3581,-5.3582,-5.3735,-5.3645,0,0,0,0,0,0,0,0,0,0,-5.3529,-5.3502,-5.3429,-5.343,-5.3465,-5.3581,-5.3582,-5.364,-5.365,-5.3684,0,-5.3715,0,-5.3729,-5.3748,-5.3748,0,0,0,-5.3461,-5.3494,-5.3524,-5.3431,-5.3466,-5.3581,-5.3527,-5.3646,-5.3657,-5.3697,-5.3717,-5.3723,-5.3731,-5.3749,-5.375,-5.3953,-5.3954,0,0,-5.3454,-5.345,-5.3516,-5.3531,-5.3514,-5.3524,-5.3531,-5.3653,-5.3674,-5.3718,-5.3726,-5.3734,-5.375,-5.3751,-5.3952,-5.3953,0,0,0,-5.3437,-5.3446,-5.3473,-5.3525,-5.3546,-5.3527,-5.3536,-5.3668,-5.3677,-5.3728,-5.3736,-5.3751,-5.3753,-5.3951,-5.3952,-5.3999,0,0,0,-5.3433,-5.3436,-5.347,-5.3468,-5.3544,-5.3609,-5.3549,-5.3669,-5.3683,-5.3735,-5.3751,-5.3754,-5.395,-5.3952,-5.3996,-5.4021,0,0,0,-5.3419,-5.3434,-5.3452,-5.3468,-5.3519,-5.3607,-5.3623,-5.3672,-5.3688,-5.3748,-5.3755,-5.3949,-5.3951,-5.3992,-5.4015,-5.4072,0,0,0,-5.3403,-5.3492,-5.3453,-5.3556,-5.3518,-5.3637,-5.3622,-5.3711,-5.3769,-5.3752,-5.395,-5.3952,-5.3991,-5.4012,-5.4068,-5.4117,-5.4137,0,0,-5.3512,-5.3505,-5.3566,-5.3535,-5.3659,-5.3619,-5.3751,-5.3807,-5.3816,-5.3907,-5.3912,-5.3997,-5.4015,-5.4071,-5.426,-5.4276,0,0,0,-5.3599,-5.3642,-5.3677,-5.3732,-5.3779,-5.3821,-5.3858,-5.388,-5.3957,-5.3862,-5.4035,-5.4045,-5.4078,-5.4101,-5.4115,-5.4143,-5.3964,-5.3963,-5.3963,-5.3744,-5.3754,-5.3855,-5.3879,-5.3934,-5.3973,-5.4018,-5.4053,-5.4045,-5.4086,-5.4111,-5.4225,-5.4252,-5.4262,-5.4291,-5.4141,-5.4141,-5.4141,-5.4141,-5.3904,-5.3965,-5.3957,-5.4051,-5.406,-5.414,-5.4182,-5.4174,-5.4249,-5.4206,-5.4235,-5.4185,-5.428,-5.4305,-5.4145,-5.4144,-5.4144,-5.4143,-5.4143,-5.3997,-5.4028,-5.4055,-5.4138,-5.4201,-5.4223,-5.4296,-5.4302,-5.4309,-5.4338,-5.4365,-5.4364,-5.4362,-5.4352,-5.4352,-5.4352,-5.4353,-5.4353,-5.4353,-5.4081,-5.411,-5.4171,-5.4231,-5.4268,-5.4319,-5.4362,-5.4399,-5.4441,-5.444,-5.444,-5.4427,-5.4289,-5.4252,-5.4359,-5.4358,-5.4357,-5.4357,-5.4356,-5.4233,-5.42,-5.4294,-5.4332,-5.4403,-5.4465,-5.4475,-5.455,-5.4582,-5.4617,-5.46,-5.4499,-5.449,-5.4479,-5.4448,-5.4599,-5.4599,-5.4599,-5.4599,-5.4308,-5.4307,-5.4405,-5.4465,-5.4525,-5.4544,-5.4649,-5.4685,-5.4716,-5.4736,-5.4716,-5.4678,-5.4667,-5.4665,-5.465,-5.4621,-5.4813,-5.4813,-5.4813,-5.4401,-5.4406,-5.4493,-5.4525,-5.4583,-5.4632,-5.473,-5.4799,-5.4828,-5.4822,-5.4751,-5.4742,-5.468,-5.466,-5.4646,-5.4623,-5.457,0,0]},{"header":{"parameterUnit":"m.s-1","parameterCategory":1,"la1":30.2992,"la2":30.254,"lo1":-89.0895,"lo2":-89.0443,"dy":0.0025,"dx":0.0025,"nx":19,"ny":19,"refTime":"2026-05-18T09:00:00:Z","depth":0,"parameterNumber":3,"parameterNumberName":"V-component_of_WINDS"},"data":[0,0,0,3.7229,3.7231,3.7335,3.7335,3.744,3.744,0,0,0,0,0,0,0,0,0,0,0,3.7183,3.7184,3.7229,3.7231,3.7335,3.7335,3.7439,3.744,0,0,0,0,0,0,0,0,0,0,0,3.7183,3.7184,3.7184,3.7231,3.7335,3.7335,3.7439,3.737,0,0,0,0,0,0,0,0,0,0,3.7274,3.7218,3.7184,3.7184,3.7232,3.7334,3.7335,3.7368,3.7375,3.7381,0,3.7385,0,3.7415,3.7446,3.7446,0,0,0,3.7241,3.7212,3.7254,3.7184,3.7233,3.7334,3.7291,3.7372,3.738,3.7391,3.7387,3.7392,3.7417,3.7446,3.7447,3.746,3.7459,0,0,3.7235,3.7193,3.7248,3.7259,3.7244,3.7287,3.7294,3.7377,3.7369,3.7388,3.7395,3.7418,3.7447,3.7447,3.746,3.7459,0,0,0,3.7212,3.7188,3.7229,3.7254,3.7275,3.729,3.7298,3.7366,3.7383,3.7396,3.7419,3.7447,3.7448,3.746,3.746,3.7401,0,0,0,3.7209,3.7175,3.7226,3.7201,3.7273,3.7322,3.7284,3.7377,3.7388,3.7419,3.7447,3.7449,3.7461,3.746,3.7404,3.738,0,0,0,3.7182,3.7172,3.7183,3.7199,3.7242,3.7322,3.7344,3.738,3.7401,3.7446,3.7449,3.7461,3.746,3.7406,3.7384,3.7373,0,0,0,3.7139,3.7125,3.7181,3.7175,3.7241,3.7285,3.7344,3.7378,3.7409,3.7448,3.7461,3.746,3.7407,3.7386,3.7375,3.7356,3.7345,0,0,3.7098,3.7119,3.7119,3.7172,3.7196,3.7273,3.7288,3.7354,3.7394,3.7435,3.7436,3.7403,3.7384,3.7373,3.7292,3.7283,0,0,0,3.7092,3.7091,3.7107,3.7137,3.719,3.7234,3.7303,3.7329,3.7366,3.7408,3.7397,3.7387,3.7382,3.7375,3.7367,3.7366,3.7455,3.7455,3.7455,3.6972,3.7029,3.7034,3.7104,3.7132,3.7206,3.7234,3.728,3.7325,3.7322,3.7334,3.7279,3.7269,3.7263,3.7262,3.7328,3.7328,3.7328,3.7328,3.6918,3.6928,3.6994,3.7022,3.7081,3.7104,3.7175,3.7208,3.7237,3.7273,3.7272,3.7307,3.7251,3.7253,3.7324,3.7325,3.7325,3.7325,3.7326,3.6847,3.6862,3.6896,3.6948,3.6981,3.7051,3.7078,3.713,3.7179,3.7178,3.7198,3.7199,3.7207,3.7184,3.7183,3.7183,3.7183,3.7183,3.7183,3.676,3.68,3.6818,3.6877,3.6905,3.6948,3.7024,3.7052,3.7096,3.7132,3.7132,3.7179,3.7235,3.7249,3.718,3.7181,3.7181,3.7181,3.7181,3.6685,3.6712,3.674,3.6768,3.6843,3.6873,3.6941,3.6994,3.7024,3.7036,3.7084,3.7117,3.7141,3.7148,3.7159,3.7072,3.7072,3.7072,3.7072,3.6626,3.6645,3.6687,3.673,3.6777,3.6842,3.6871,3.693,3.6995,3.7017,3.7038,3.7057,3.7062,3.7083,3.7091,3.7103,3.7003,3.7003,3.7003,3.6584,3.6611,3.6626,3.6694,3.6757,3.6809,3.6838,3.6883,3.6961,3.7001,3.7036,3.7039,3.7072,3.7079,3.7119,3.7131,3.7153,0,0]}]]